Home > Weather > Cheongju > Past weeks

Flag for South Korea Past Weather in Cheongju, South Korea — Yesterday and Last 2 Weeks

Now
75 °F

Rain. Fog.


Feels Like: 74 °F
Forecast: 72 / 78 °F
Wind: 10 mph from Southwest

Location: Chongju Ab

Current Time: Jul 1, 2016 at 7:04:15 PM

Latest Report: Jul 1, 2016 at 6:00 PM


Visibility: 3 mi

Pressure: 29.59 "Hg

Humidity: 94%

Dew Point: 73 °F

Location of CheongjuLocation

Past Weather in Cheongju — Graph

°F

Cheongju Temperature Yesterday

Maximum temperature yesterday: 82 °F (at 3:00 PM)
Minimum temperature yesterday: 72 °F (at 1:00 AM)
Average temperature yesterday: 77 °F

High & Low Weather Summary for the Past Weeks

 TemperatureHumidityPressure
High88 °F (Jun 18, 2:00 PM)100% (Jun 18, 2:00 AM)29.89 "Hg (Jun 18, 2:00 AM)
Low61 °F (Jun 26, 5:00 AM)33% (Jun 18, 6:00 PM)29.42 "Hg (Jun 24, 1:00 PM)
Average75 °F73%29.74 "Hg
* Reported Jun 16 6:00 PM — Jul 1 6:00 PM, Cheongju, Weather by CustomWeather, © 2016

Note: Actual official high and low records may vary slightly from our data, if they occured in-between our weather recording intervals... More about our weather records

Advertising

Cheongju Weather History for the Previous 24 Hours

Scroll right to see more
 ConditionsComfort  
Time TempWeatherWind HumidityBarometerVisibility
6:00 PM
Fri, Jul 1
75 °FRain. Fog.10 mph94%29.59 "Hg3 mi
5:00 PM75 °FHeavy rain. Fog.8 mph89%29.65 "Hg2 mi
4:00 PM75 °FHeavy rain. Fog.8 mph89%29.65 "Hg2 mi
3:47 PM73 °FRain. Fog.8 mph94%29.65 "Hg1 mi
3:00 PM75 °FThunderstorms. Fog.9 mph94%29.65 "Hg2 mi
2:00 PM77 °FThunderstorms. Fog.12 mph94%29.65 "Hg2 mi
1:00 PM84 °FPartly sunny.3 mph66%29.71 "HgN/A
12:46 PM84 °FPartly sunny.8 mph66%29.68 "HgN/A
12:00 PM84 °FPartly sunny.3 mph66%29.71 "HgN/A
11:00 AM82 °FPartly sunny.3 mph66%29.74 "HgN/A
10:00 AM82 °FPartly sunny.5 mph66%29.77 "HgN/A
9:00 AM79 °FPartly sunny.1 mph79%29.80 "HgN/A
8:00 AM79 °FPartly sunny.1 mph79%29.80 "HgN/A
7:00 AM73 °FBroken clouds.2 mph89%29.77 "HgN/A
6:00 AM73 °FBroken clouds.2 mph89%29.77 "HgN/A
5:00 AM75 °FPassing clouds.3 mph83%29.80 "Hg6 mi
4:00 AM75 °FPassing clouds.9 mph83%29.80 "Hg5 mi
3:00 AM75 °FPassing clouds.7 mph89%29.80 "Hg5 mi
2:00 AM75 °FPassing clouds.6 mph94%29.80 "Hg5 mi
1:00 AM75 °FMostly cloudy.5 mph89%29.80 "Hg6 mi
12:00 AM75 °FPartly cloudy.3 mph89%29.80 "Hg6 mi
11:00 PM
Thu, Jun 30
75 °FPartly cloudy.6 mph89%29.80 "Hg6 mi
10:00 PM77 °FPassing clouds.9 mph83%29.80 "HgN/A
9:00 PM79 °FPassing clouds.9 mph79%29.80 "HgN/A
8:00 PM79 °FPartly cloudy.9 mph79%29.80 "HgN/A
7:00 PM82 °FPartly sunny.8 mph70%29.80 "HgN/A
Weather by CustomWeather, © 2016

See weather overviewHow to use our weather pages